SUPERVIEW-1 03 (43099 NORAD) Tracking and Keplerian Element Data

This shows tracking and keplerian element data for the satellite.

Feedback or suggestion? Click here.




ElementValue
Catalog43099
NameSUPERVIEW-1 03
Epoch Orbit448
Epoch Day38.84024534
Epoch Year2018
RAAN115.8318
Inclination97.5785
Eccentricity0.0005634
Argument of Perigee201.4806
Mean Anonmoly295.4637
Mean Motion15.13883649
Decay Rate1.3E-06
L11 43099U 18002A 18038.84024534 .00000130 00000-0 10849-4 0 9996
L22 43099 97.5785 115.8318 0005634 201.4806 295.4637 15.13883649 4484

Live tracking and technical data element details for SUPERVIEW-1 03 (NORAD 43099). SUPERVIEW-1 03 can be tracked NOW for your location showing map with azimuth and elevation plus other details from your city location.

Track the satellite on the map from your city or location and see movement details for azimuth, elevation, latitude, longitude, range, height, and movement on the map or in text.







IsCatalogInMostPopularTable: catalog: 43099, numindb: 125
Update: records affected: 1



GetName: 43099 SUPERVIEW-1 03

Hit Count: updated at: Mon, 19 Nov 2018 14:14:59 GMT